Weather in Alekseyevka

Russia / Amur Oblast     49°33′52″N   129°27′12″E
temp.,
°C
wind,
m/s
gust,
m/s
humid.,
%
clouds,
%
prec.,
mm/h
press.,
hPa
HPBL,
m
4 march, thu
thu400:00−12se4695100 0.0 101397
03:00−12se4894100 0.0 1011147
06:00−10se3596100 1.6 1011143
09:00−7s249697 2.0 1011169
12:00−3wsw238895 0.1 1009490
15:00−3nne229398 0.4 1008307
18:00−5nw4796100 0.6 1009237
21:00−11nw51092100 1.1 1011401
5 march, fri
fri500:00−15nw71292100 0.3 1015537
03:00−18nw71384100 0.4 1019681
06:00−25wnw5138333 0.0 1023462
09:00−25nw7128017 0.0 1026693
12:00−22wnw811792 0.0 1028940
15:00−20wnw8127951 0.0 10291248
18:00−20wnw51284100 0.0 1032532
21:00−23wnw4108892 0.0 1033147
6 march, sat
sat600:00−23w5108849 0.0 1035183
03:00−25wnw4109025 0.0 1035158
06:00−25wnw44890 0.0 103673
09:00−21wnw46860 0.0 1035194
12:00−16wnw36790 0.0 1033480
15:00−14wnw59790 0.0 1031750
18:00−16w34840 0.0 103070
21:00−19w37870 0.0 103289
7 march, sun
sun700:00−21w229340 0.0 103020
03:00−20ese239365 0.0 102834
06:00−18ese3398100 0.1 102883
09:00−15ese2296100 0.5 1027121
12:00−11nnw1285100 0.1 1025556
15:00−10wnw2381100 0.3 1025680
18:00−14wnw229070 0.0 102521
21:00−16w229335 0.0 102820
8 march, mon
mon800:00−17wsw129757 0.0 102820
03:00−19wsw129861 0.0 102720
06:00−19se129725 0.0 102720
09:00−15ese229413 0.0 102575
12:00−7se258297 0.0 1022449
15:00−3ne118195 0.0 1019289
18:00−5w238698 0.0 101878
21:00−5w4118899 0.0 1019307